PGT097 LBSF-LTFJ

Flight info

Callsign PGT097
Flight time 0h 45m
Altitude 33000
Route DEDIN3T/27 DEDIN L614 ADORU UM19 IBODU
Aircraft A320/M-SDE3FGHIRWY/LB1

Departure

Time 2026-05-06 19:40
Airport Sofia Airport (LBSF)

Arrival

Time 2026-05-06 20:25
Airport Istanbul Sabiha Gökçen International Airport (LTFJ)
Time Latitude Longitude Altitude Speed Heading
2026-05-06 19:15 42.69185 23.41258 1749 ft 0 kts 72°
2026-05-06 19:32 42.69180 23.41238 1749 ft 4 kts 72°
2026-05-06 19:32 42.69176 23.41218 1730 ft 2 kts 72°
2026-05-06 19:32 42.69168 23.41189 1754 ft 4 kts 58°
2026-05-06 19:33 42.69168 23.41177 1751 ft 3 kts 341°
2026-05-06 19:33 42.69151 23.41185 1747 ft 0 kts 341°
2026-05-06 19:35 42.69185 23.41169 1748 ft 11 kts 341°
2026-05-06 19:35 42.69270 23.41166 1749 ft 13 kts 10°
2026-05-06 19:35 42.69361 23.41190 1753 ft 14 kts 11°
2026-05-06 19:36 42.69460 23.41207 1753 ft 15 kts 347°
2026-05-06 19:36 42.69498 23.41102 1753 ft 12 kts 274°
2026-05-06 19:36 42.69505 23.40994 1753 ft 11 kts 275°
2026-05-06 19:36 42.69513 23.40868 1753 ft 17 kts 275°
2026-05-06 19:37 42.69525 23.40664 1746 ft 25 kts 274°
2026-05-06 19:37 42.69539 23.40431 1753 ft 24 kts 275°
2026-05-06 19:37 42.69553 23.40201 1748 ft 24 kts 274°
2026-05-06 19:37 42.69566 23.39979 1749 ft 23 kts 273°
2026-05-06 19:38 42.69576 23.39772 1753 ft 21 kts 274°
2026-05-06 19:38 42.69599 23.39603 1750 ft 14 kts 320°
2026-05-06 19:38 42.69691 23.39595 1750 ft 13 kts
2026-05-06 19:38 42.69764 23.39647 1746 ft 13 kts 62°
2026-05-06 19:39 42.69766 23.39771 1751 ft 14 kts 94°
2026-05-06 19:39 42.69750 23.40021 1752 ft 54 kts 95°
2026-05-06 19:39 42.69703 23.40848 1752 ft 118 kts 94°
2026-05-06 19:39 42.69625 23.42187 1786 ft 162 kts 94°
2026-05-06 19:40 42.69530 23.43705 2474 ft 162 kts 96°
2026-05-06 19:40 42.69437 23.45240 3156 ft 164 kts 95°
2026-05-06 19:40 42.69344 23.46808 3661 ft 175 kts 95°
2026-05-06 19:40 42.69237 23.48556 3931 ft 197 kts 96°
2026-05-06 19:41 42.69114 23.50517 4142 ft 221 kts 98°
2026-05-06 19:41 42.68976 23.52708 4506 ft 245 kts 97°
2026-05-06 19:41 42.68823 23.55136 4934 ft 268 kts 97°
2026-05-06 19:41 42.68662 23.57712 5687 ft 276 kts 96°
2026-05-06 19:42 42.68502 23.60332 6541 ft 281 kts 96°
2026-05-06 19:42 42.68339 23.63001 7364 ft 285 kts 96°
2026-05-06 19:42 42.68173 23.65708 8184 ft 290 kts 96°
2026-05-06 19:42 42.67812 23.68415 9006 ft 293 kts 107°
2026-05-06 19:43 42.67248 23.71095 9861 ft 297 kts 107°
2026-05-06 19:43 42.66670 23.73838 10413 ft 312 kts 107°
2026-05-06 19:43 42.66048 23.76775 10671 ft 335 kts 107°
2026-05-06 19:43 42.65384 23.79911 10991 ft 354 kts 107°
2026-05-06 19:44 42.64696 23.83160 11590 ft 361 kts 106°
2026-05-06 19:44 42.63996 23.86464 12270 ft 367 kts 106°
2026-05-06 19:44 42.63289 23.89806 13012 ft 370 kts 105°
2026-05-06 19:44 42.62576 23.93171 13799 ft 372 kts 105°
2026-05-06 19:45 42.61857 23.96558 14429 ft 376 kts 105°
2026-05-06 19:45 42.61127 23.99969 15047 ft 379 kts 105°
2026-05-06 19:45 42.60383 24.03441 15681 ft 383 kts 105°
2026-05-06 19:45 42.59634 24.06925 16295 ft 387 kts 105°
2026-05-06 19:46 42.58818 24.10427 16859 ft 392 kts 108°
2026-05-06 19:46 42.57896 24.13922 17464 ft 396 kts 110°
2026-05-06 19:46 42.56903 24.17422 18067 ft 399 kts 111°
2026-05-06 19:46 42.55890 24.20900 18582 ft 403 kts 111°
2026-05-06 19:47 42.54861 24.24443 19078 ft 406 kts 111°
2026-05-06 19:47 42.53835 24.28028 19540 ft 410 kts 110°
2026-05-06 19:47 42.52811 24.31653 20010 ft 414 kts 110°
2026-05-06 19:47 42.51786 24.35314 20489 ft 417 kts 110°
2026-05-06 19:48 42.50755 24.39012 20958 ft 421 kts 110°
2026-05-06 19:48 42.49717 24.42736 21405 ft 424 kts 110°
2026-05-06 19:48 42.48670 24.46491 21862 ft 428 kts 110°
2026-05-06 19:48 42.47609 24.50275 22307 ft 431 kts 110°
2026-05-06 19:49 42.46537 24.54087 22737 ft 435 kts 110°
2026-05-06 19:49 42.45454 24.57930 23158 ft 439 kts 110°
2026-05-06 19:49 42.44359 24.61808 23576 ft 442 kts 110°
2026-05-06 19:49 42.43255 24.65707 23923 ft 446 kts 110°
2026-05-06 19:50 42.42140 24.69636 24288 ft 449 kts 110°
2026-05-06 19:50 42.41016 24.73586 24645 ft 451 kts 110°
2026-05-06 19:50 42.39886 24.77558 24994 ft 454 kts 110°
2026-05-06 19:50 42.38746 24.81557 25333 ft 457 kts 110°
2026-05-06 19:51 42.37599 24.85574 25670 ft 459 kts 110°
2026-05-06 19:51 42.36446 24.89613 26015 ft 462 kts 110°
2026-05-06 19:51 42.35286 24.93673 26354 ft 464 kts 110°
2026-05-06 19:51 42.34116 24.97752 26695 ft 467 kts 110°
2026-05-06 19:52 42.32938 25.01852 27021 ft 469 kts 110°
2026-05-06 19:52 42.31753 25.05974 27348 ft 472 kts 110°
2026-05-06 19:52 42.30559 25.10122 27662 ft 475 kts 110°
2026-05-06 19:52 42.29359 25.14283 27969 ft 477 kts 109°
2026-05-06 19:53 42.28152 25.18474 28256 ft 480 kts 109°
2026-05-06 19:53 42.26936 25.22688 28545 ft 483 kts 109°
2026-05-06 19:53 42.25709 25.26925 28835 ft 485 kts 109°
2026-05-06 19:53 42.24474 25.31175 29120 ft 488 kts 109°
2026-05-06 19:54 42.23232 25.35444 29398 ft 490 kts 109°
2026-05-06 19:54 42.21982 25.39729 29679 ft 492 kts 109°
2026-05-06 19:54 42.20726 25.44027 30048 ft 492 kts 109°
2026-05-06 19:54 42.19469 25.48318 30391 ft 492 kts 109°
2026-05-06 19:55 42.18214 25.52601 30737 ft 491 kts 109°
2026-05-06 19:55 42.16960 25.56887 31094 ft 490 kts 109°
2026-05-06 19:55 42.15718 25.61140 31455 ft 489 kts 109°
2026-05-06 19:55 42.14468 25.65412 31800 ft 488 kts 109°
2026-05-06 19:56 42.13225 25.69660 32165 ft 487 kts 109°
2026-05-06 19:56 42.11982 25.73902 32533 ft 486 kts 109°
2026-05-06 19:56 42.10736 25.78129 32843 ft 486 kts 109°
2026-05-06 19:56 42.09479 25.82365 33007 ft 487 kts 109°
2026-05-06 19:57 42.06970 25.90816 33026 ft 486 kts 109°
2026-05-06 19:57 42.04468 25.99256 33034 ft 486 kts 109°
2026-05-06 19:58 42.01959 26.07691 33030 ft 486 kts 109°
2026-05-06 19:58 41.99444 26.16131 33035 ft 486 kts 109°
2026-05-06 19:59 41.96935 26.24509 33044 ft 487 kts 109°
2026-05-06 19:59 41.94397 26.32941 33066 ft 487 kts 109°
2026-05-06 20:00 41.91852 26.41368 33041 ft 487 kts 108°
2026-05-06 20:00 41.89298 26.49804 33045 ft 488 kts 109°
2026-05-06 20:01 41.86294 26.57990 33043 ft 493 kts 122°
2026-05-06 20:01 41.82005 26.65201 33043 ft 495 kts 128°
2026-05-06 20:02 41.77601 26.72302 33037 ft 496 kts 127°
2026-05-06 20:02 41.73199 26.79418 33035 ft 496 kts 127°
2026-05-06 20:03 41.68788 26.86525 33038 ft 497 kts 128°
2026-05-06 20:03 41.64355 26.93636 32628 ft 498 kts 127°
2026-05-06 20:04 41.62134 26.97194 31785 ft 499 kts 127°
2026-05-06 20:04 41.59909 27.00760 30971 ft 500 kts 127°
2026-05-06 20:04 41.57676 27.04330 30146 ft 501 kts 127°
2026-05-06 20:04 41.55434 27.07897 29251 ft 501 kts 128°
2026-05-06 20:05 41.53126 27.11354 28620 ft 495 kts 130°
2026-05-06 20:05 41.50760 27.14660 27977 ft 490 kts 132°
2026-05-06 20:05 41.48363 27.17854 27385 ft 485 kts 133°
2026-05-06 20:05 41.45966 27.20988 26732 ft 481 kts 133°
2026-05-06 20:06 41.43595 27.24100 26160 ft 476 kts 133°
2026-05-06 20:06 41.41266 27.27198 25708 ft 471 kts 132°
2026-05-06 20:06 41.38966 27.30309 25465 ft 470 kts 132°
2026-05-06 20:06 41.36690 27.33423 25224 ft 468 kts 131°
2026-05-06 20:07 41.34428 27.36528 24985 ft 466 kts 131°
2026-05-06 20:07 41.32174 27.39614 24749 ft 464 kts 131°
2026-05-06 20:07 41.29925 27.42677 24513 ft 462 kts 132°
2026-05-06 20:07 41.27680 27.45718 24288 ft 460 kts 132°
2026-05-06 20:08 41.25478 27.48771 24067 ft 451 kts 128°
2026-05-06 20:08 41.23635 27.52044 23843 ft 435 kts 118°
2026-05-06 20:08 41.22219 27.55523 23607 ft 423 kts 109°
2026-05-06 20:08 41.21128 27.59125 23331 ft 419 kts 107°
2026-05-06 20:09 41.20057 27.62715 23067 ft 417 kts 107°
2026-05-06 20:09 41.18996 27.66232 22800 ft 415 kts 108°
2026-05-06 20:09 41.17921 27.69775 22536 ft 413 kts 108°
2026-05-06 20:09 41.16845 27.73298 22271 ft 411 kts 108°
2026-05-06 20:10 41.15758 27.76854 22008 ft 409 kts 108°
2026-05-06 20:10 41.14709 27.80293 21756 ft 407 kts 108°
2026-05-06 20:10 41.13652 27.83769 21496 ft 405 kts 108°
2026-05-06 20:10 41.12604 27.87230 21154 ft 404 kts 108°
2026-05-06 20:11 41.11557 27.90678 20608 ft 402 kts 108°
2026-05-06 20:11 41.10511 27.94109 20083 ft 401 kts 108°
2026-05-06 20:11 41.09469 27.97508 19600 ft 397 kts 109°
2026-05-06 20:11 41.08427 28.00893 19195 ft 393 kts 109°
2026-05-06 20:12 41.07398 28.04230 18751 ft 390 kts 109°
2026-05-06 20:12 41.06379 28.07550 18309 ft 387 kts 109°
2026-05-06 20:12 41.05369 28.10842 17816 ft 384 kts 109°
2026-05-06 20:12 41.04367 28.14108 17325 ft 381 kts 109°
2026-05-06 20:13 41.03374 28.17347 16864 ft 378 kts 109°
2026-05-06 20:13 41.02386 28.20560 16413 ft 375 kts 109°
2026-05-06 20:13 41.01401 28.23747 15970 ft 373 kts 109°
2026-05-06 20:13 41.00419 28.26912 15530 ft 370 kts 109°
2026-05-06 20:14 40.99445 28.30045 15099 ft 367 kts 109°
2026-05-06 20:14 40.98477 28.33160 14658 ft 365 kts 109°
2026-05-06 20:14 40.97517 28.36257 14236 ft 362 kts 109°
2026-05-06 20:14 40.96566 28.39328 13818 ft 359 kts 109°
2026-05-06 20:15 40.95620 28.42374 13352 ft 357 kts 109°
2026-05-06 20:15 40.94678 28.45401 12882 ft 354 kts 109°
2026-05-06 20:15 40.93743 28.48403 12413 ft 352 kts 109°
2026-05-06 20:15 40.92813 28.51386 11957 ft 350 kts 109°
2026-05-06 20:16 40.91893 28.54343 11576 ft 345 kts 109°
2026-05-06 20:16 40.90992 28.57221 11451 ft 333 kts 109°
2026-05-06 20:16 40.90120 28.59998 11317 ft 322 kts 109°
2026-05-06 20:16 40.89274 28.62688 11126 ft 314 kts 109°
2026-05-06 20:17 40.88442 28.65336 10816 ft 311 kts 109°
2026-05-06 20:17 40.87894 28.67079 10605 ft 309 kts 109°
2026-05-06 20:17 40.87071 28.69697 10259 ft 308 kts 109°
2026-05-06 20:17 40.86254 28.72304 9910 ft 306 kts 109°
2026-05-06 20:18 40.85439 28.74900 9511 ft 305 kts 109°
2026-05-06 20:18 40.84628 28.77478 9118 ft 304 kts 109°
2026-05-06 20:18 40.83815 28.80050 8711 ft 303 kts 110°
2026-05-06 20:18 40.83005 28.82608 8314 ft 301 kts 110°
2026-05-06 20:19 40.82199 28.85157 7910 ft 300 kts 110°
2026-05-06 20:19 40.81395 28.87696 7504 ft 299 kts 110°
2026-05-06 20:19 40.80593 28.90226 7109 ft 298 kts 110°
2026-05-06 20:19 40.79794 28.92746 6649 ft 299 kts 110°
2026-05-06 20:20 40.78976 28.95334 5825 ft 312 kts 111°
2026-05-06 20:20 40.78123 28.98032 4981 ft 324 kts 112°
2026-05-06 20:20 40.77549 29.00919 4246 ft 327 kts 89°
2026-05-06 20:20 40.78077 29.03720 4032 ft 309 kts 60°
2026-05-06 20:21 40.79126 29.06099 3985 ft 290 kts 56°
2026-05-06 20:21 40.80173 29.08268 3997 ft 271 kts 55°
2026-05-06 20:21 40.81085 29.10355 3876 ft 258 kts 59°
2026-05-06 20:21 40.81903 29.12451 3504 ft 255 kts 62°
2026-05-06 20:22 40.82670 29.14525 3048 ft 248 kts 63°
2026-05-06 20:22 40.83400 29.16507 2595 ft 232 kts 63°
2026-05-06 20:22 40.84089 29.18366 2144 ft 220 kts 63°
2026-05-06 20:22 40.84745 29.20138 1688 ft 210 kts 63°
2026-05-06 20:23 40.85371 29.21831 1275 ft 198 kts 63°
2026-05-06 20:23 40.85938 29.23365 1134 ft 175 kts 63°
2026-05-06 20:23 40.86433 29.24704 992 ft 151 kts 63°
2026-05-06 20:23 40.86874 29.25895 822 ft 139 kts 63°
2026-05-06 20:24 40.87293 29.27024 704 ft 135 kts 63°
2026-05-06 20:24 40.87707 29.28123 600 ft 133 kts 63°
2026-05-06 20:24 40.88110 29.29217 476 ft 132 kts 64°
2026-05-06 20:24 40.88504 29.30296 328 ft 132 kts 63°
2026-05-06 20:25 40.88875 29.31322 297 ft 105 kts 65°
2026-05-06 20:25 40.89120 29.31986 301 ft 59 kts 64°
2026-05-06 20:25 40.89322 29.32392 303 ft 47 kts 37°
2026-05-06 20:25 40.89445 29.32493 304 ft 16 kts 29°
2026-05-06 20:26 40.89497 29.32454 303 ft 9 kts 275°
2026-05-06 20:26 40.89505 29.32380 304 ft 11 kts 308°
2026-05-06 20:26 40.89644 29.32315 303 ft 30 kts 335°
2026-05-06 20:26 40.89833 29.32193 308 ft 30 kts 333°
2026-05-06 20:27 40.90013 29.32078 311 ft 22 kts 334°
2026-05-06 20:27 40.90112 29.32114 311 ft 17 kts 67°
2026-05-06 20:27 40.90166 29.32265 310 ft 19 kts 63°
2026-05-06 20:27 40.90228 29.32429 310 ft 21 kts 63°
2026-05-06 20:28 40.90267 29.32539 311 ft 8 kts 65°
2026-05-06 20:28 40.90297 29.32598 311 ft 4 kts
2026-05-06 20:28 40.90318 29.32589 311 ft 2 kts 339°
2026-05-06 20:28 40.90378 29.32551 311 ft 18 kts 333°
2026-05-06 20:29 40.90494 29.32476 312 ft 19 kts 334°
2026-05-06 20:29 40.90608 29.32370 311 ft 19 kts 298°
2026-05-06 20:29 40.90698 29.32286 311 ft 14 kts 335°
2026-05-06 20:29 40.90728 29.32190 311 ft 12 kts 248°
2026-05-06 20:30 40.90692 29.32094 311 ft 12 kts 244°
2026-05-06 20:30 40.90595 29.31829 310 ft 16 kts 245°
2026-05-06 20:30 40.90537 29.31672 310 ft 20 kts 244°
2026-05-06 20:31 40.90487 29.31537 311 ft 12 kts 244°
2026-05-06 20:31 40.90462 29.31465 311 ft 7 kts 257°
2026-05-06 20:31 40.90492 29.31420 311 ft 8 kts 334°
2026-05-06 20:31 40.90528 29.31397 311 ft 3 kts 334°
2026-05-06 20:32 40.90539 29.31390 311 ft 1 kts 334°
2026-05-06 20:32 40.90543 29.31387 311 ft 1 kts 334°
2026-05-06 20:32 40.90544 29.31387 311 ft 0 kts 334°